2024-153C (60747 NORAD) Tracking and Keplerian Element Data

This shows tracking and keplerian element data for the satellite.

Feedback or suggestion? Click here.




ElementValue
Catalog60747
Name2024-153C
Epoch Orbit674
Epoch Day286.84858679
Epoch Year2024
RAAN44.1643
Inclination97.619
Eccentricity0.0016988
Argument of Perigee136.6129
Mean Anonmoly223.6442
Mean Motion15.11881061
Decay Rate0.00027786
L11 60747U 24153C 24286.84858679 .00027786 00000+0 16171-2 0 9993
L22 60747 97.6190 44.1643 0016988 136.6129 223.6442 15.11881061 6742



Live tracking and technical data element details for 2024-153C (NORAD 60747). 2024-153C can be tracked NOW for your location showing map with azimuth and elevation plus other details from your city location.







IsCatalogInMostPopularTable: catalog: 60747, numindb: 7
Update: records affected: 1



GetName: 60747 2024-153C

Hit Count: updated at: Fri, 06 Dec 2024 10:22:17 GMT